Regional Weather Roundup
Issued by NWS

Home | Current Version | Previous Version | Graphics & Text | Print | Product List | Glossary On
Versions: 1 2 3 4 5 6 7 8 9 10 11 12 13 14 15 16 17 18 19 20 21 22 23 24 25 26 27 28
000
ASUS45 KSLC 290810
RWRUT

UTAH REGIONAL WEATHER ROUNDUP
NATIONAL WEATHER SERVICE SALT LAKE CITY UT
200 AM MDT FRI APR 29 2016

UTZ001>011-023>025-290900-

NORTHERN UTAH

CITY           SKY/WX    TMP DP  RH WIND       PRES   REMARKS
BRIGHAM CITY   MOCLDY    47  26  43 E13G22    29.87F
HILL AFB       MOCLDY    44  28  55 E18G29    29.86S
LOGAN          MOCLDY    44  30  57 SE14      29.89S
OGDEN          PTCLDY    45  29  53 E9        29.85S
PROVO AIRPORT  CLOUDY    46  34  61 NW9       29.84S
SALT LAKE CITY CLOUDY    48  33  56 CALM      29.84S
VERNAL         CLOUDY    41  30  65 N13       29.86S
WENDOVER       PTCLDY    48  36  61 E12       29.87S
HEBER CITY     CLOUDY    37  32  81 N8        29.87R WCI  31

$$

UTZ012>022-026-027-290900-

SOUTHERN/CENTRAL UTAH

CITY           SKY/WX    TMP DP  RH WIND       PRES   REMARKS
BLANDING       CLOUDY    38  33  83 NE3       29.92S
BRYCE CANYON   CLOUDY    33  31  92 W10       29.86S WCI  25
CEDAR CITY     LGT RAIN  41  39  93 CALM      29.86S
DELTA          CLOUDY    43  43 100 CALM      29.86R
MILFORD        CLOUDY    42  41  96 SE5       29.85S
MOAB/CYNLANDS  PTCLDY    40  38  93 W3        29.81S
PRICE          CLOUDY    38  35  89 N7        29.84S WCI  33
ST GEORGE      PTSUNNY   50  43  76 W5        29.87R

$$

REGIONAL REPORTS     COLORADO/ARIZONA

CITY           SKY/WX    TMP DP  RH WIND       PRES   REMARKS
CRAIG, CO      LGT RAIN  38  34  85 SE15      29.90F WCI  29
GRAND JUNCTION CLOUDY    42  39  89 W8        29.81S
RIFLE          CLOUDY    42  35  76 NE13G22   29.83F
MONTROSE       CLOUDY    45  30  55 S16       29.84S
CORTEZ         CLOUDY    33  30  88 E3        29.85F
PAGE, AZ       CLOUDY    46  44  93 NE3       29.82S
GRAND CANYON   CLOUDY    38  36  92 SW7       29.88R WCI  33
KINGMAN        PTCLDY    46  44  93 E7        29.86R
FLAGSTAFF      MOCLDY    35  33  92 W5        29.88S WCI  31

$$

REGIONAL REPORTS    NEVADA/IDAHO/WYOMING

CITY           SKY/WX    TMP DP  RH WIND       PRES   REMARKS
LAS VEGAS, NV  MOCLDY    56  50  80 SW5       29.81R
ELY            MOCLDY    35  31  85 CALM      29.93R
ELKO           PTCLDY    43  36  76 W7        29.94R
POCATELLO, ID  CLOUDY    42  32  67 CALM      29.88S
BURLEY         CLOUDY    45  40  82 SE5       29.87S
EVANSTON, WY   CLOUDY    31  26  82 E13G22    29.91S WCI  21
ROCK SPRINGS   CLOUDY    31  25  78 NE22G28   29.94F WCI  18

$$




USA.gov is the U.S. government's official web portal to all federal, state and local government web resources and services.